Time,TemperatureF,DewpointF,PressureIn,WindDirection,WindDirectionDegrees,WindSpeedMPH,WindSpeedGustMPH,Humidity,HourlyPrecipIn,Conditions,Clouds,dailyrainin,SoftwareType,DateUTC
2013-02-09 00:11:00,47.3,27.6,29.50,ENE,67,0.0,-999.0,46,-99.99,,,0.00,Acu-Link.com,2013-02-09 07:11:00,
2013-02-09 00:26:00,46.4,27.3,29.48,East,90,0.0,-999.0,47,-99.99,,,0.00,Acu-Link.com,2013-02-09 07:26:00,
2013-02-09 00:42:00,45.3,26.8,29.49,SSW,202,0.0,-999.0,48,-99.99,,,0.00,Acu-Link.com,2013-02-09 07:42:00,
2013-02-09 00:57:00,43.9,26.0,29.48,ESE,112,0.0,-999.0,49,-99.99,,,0.00,Acu-Link.com,2013-02-09 07:57:00,
2013-02-09 01:12:00,41.7,25.4,29.48,SSE,157,0.0,-999.0,52,-99.99,,,0.00,Acu-Link.com,2013-02-09 08:12:00,
2013-02-09 01:27:00,40.3,24.5,29.47,SSW,202,0.0,-999.0,53,-99.99,,,0.00,Acu-Link.com,2013-02-09 08:27:00,
2013-02-09 01:43:00,38.3,23.6,29.47,West,270,0.0,-999.0,55,-99.99,,,0.00,Acu-Link.com,2013-02-09 08:43:00,
2013-02-09 01:58:00,36.5,22.7,29.48,ESE,112,0.0,-999.0,57,-99.99,,,0.00,Acu-Link.com,2013-02-09 08:58:00,
2013-02-09 02:13:00,34.7,23.0,29.46,ESE,112,0.0,-999.0,62,-99.99,,,0.00,Acu-Link.com,2013-02-09 09:13:00,
2013-02-09 02:29:00,33.8,22.9,29.45,ESE,112,0.0,-999.0,64,-99.99,,,0.00,Acu-Link.com,2013-02-09 09:29:00,
2013-02-09 02:44:00,33.1,22.6,29.45,SSW,202,0.0,-999.0,65,-99.99,,,0.00,Acu-Link.com,2013-02-09 09:44:00,
2013-02-09 02:59:00,32.0,21.9,29.45,East,90,0.0,-999.0,66,-99.99,,,0.00,Acu-Link.com,2013-02-09 09:59:00,
2013-02-09 03:15:00,31.1,21.1,29.44,SSW,202,0.0,-999.0,66,-99.99,,,0.00,Acu-Link.com,2013-02-09 10:15:00,
2013-02-09 03:30:00,30.0,20.0,29.44,South,180,0.0,-999.0,66,-99.99,,,0.00,Acu-Link.com,2013-02-09 10:30:00,
2013-02-09 03:45:00,29.1,19.2,29.44,SSW,202,0.0,-999.0,66,-99.99,,,0.00,Acu-Link.com,2013-02-09 10:45:00,
2013-02-09 04:01:00,28.4,18.5,29.44,ESE,112,0.0,-999.0,66,-99.99,,,0.00,Acu-Link.com,2013-02-09 11:01:00,
2013-02-09 04:16:00,29.7,16.8,29.44,East,90,0.0,-999.0,58,-99.99,,,0.00,Acu-Link.com,2013-02-09 11:16:00,
2013-02-09 04:31:00,31.1,15.6,29.44,East,90,0.0,-999.0,52,-99.99,,,0.00,Acu-Link.com,2013-02-09 11:31:00,
2013-02-09 04:47:00,31.6,15.1,29.43,NNW,337,0.0,-999.0,50,-99.99,,,0.00,Acu-Link.com,2013-02-09 11:47:00,
2013-02-09 05:02:00,31.3,14.8,29.43,SE,135,0.0,-999.0,50,-99.99,,,0.00,Acu-Link.com,2013-02-09 12:02:00,
2013-02-09 05:17:00,30.0,14.1,29.44,ESE,112,0.0,-999.0,51,-99.99,,,0.00,Acu-Link.com,2013-02-09 12:17:00,
2013-02-09 05:32:00,29.5,14.1,29.43,ESE,112,0.0,-999.0,52,-99.99,,,0.00,Acu-Link.com,2013-02-09 12:32:00,
2013-02-09 05:48:00,28.8,13.9,29.42,WSW,247,0.0,-999.0,53,-99.99,,,0.00,Acu-Link.com,2013-02-09 12:48:00,
2013-02-09 06:03:00,28.4,13.9,29.42,SE,135,0.0,-999.0,54,-99.99,,,0.00,Acu-Link.com,2013-02-09 13:03:00,
2013-02-09 06:18:00,27.7,13.7,29.42,East,90,0.0,-999.0,55,-99.99,,,0.00,Acu-Link.com,2013-02-09 13:18:00,
2013-02-09 06:34:00,27.5,13.9,29.42,SW,225,0.0,-999.0,56,-99.99,,,0.00,Acu-Link.com,2013-02-09 13:34:00,
2013-02-09 06:49:00,27.0,14.2,29.42,SE,135,0.0,-999.0,58,-99.99,,,0.00,Acu-Link.com,2013-02-09 13:49:00,
2013-02-09 07:04:00,26.6,13.8,29.40,SSW,202,0.0,-999.0,58,-99.99,,,0.00,Acu-Link.com,2013-02-09 14:04:00,
2013-02-09 07:20:00,26.2,14.2,29.40,SSW,202,0.0,-999.0,60,-99.99,,,0.00,Acu-Link.com,2013-02-09 14:20:00,
2013-02-09 07:35:00,26.4,14.8,29.40,SW,225,0.0,-999.0,61,-99.99,,,0.00,Acu-Link.com,2013-02-09 14:35:00,
2013-02-09 07:50:00,28.0,15.9,29.40,NE,45,0.0,-999.0,60,-99.99,,,0.00,Acu-Link.com,2013-02-09 14:50:00,
2013-02-09 08:06:00,33.8,18.5,29.41,SE,135,2.2,-999.0,53,-99.99,,,0.00,Acu-Link.com,2013-02-09 15:06:00,
2013-02-09 08:21:00,42.8,20.8,29.40,ESE,112,2.7,-999.0,41,-99.99,,,0.00,Acu-Link.com,2013-02-09 15:21:00,
2013-02-09 08:36:00,44.4,19.1,29.38,SSE,157,2.7,-999.0,36,-99.99,,,0.00,Acu-Link.com,2013-02-09 15:36:00,
2013-02-09 08:52:00,45.9,19.1,29.40,SE,135,3.2,-999.0,34,-99.99,,,0.00,Acu-Link.com,2013-02-09 15:52:00,
2013-02-09 09:07:00,46.9,19.3,29.37,SSW,202,2.7,-999.0,33,-99.99,,,0.00,Acu-Link.com,2013-02-09 16:07:00,
2013-02-09 09:22:00,48.2,19.7,29.36,WNW,292,2.7,-999.0,32,-99.99,,,0.00,Acu-Link.com,2013-02-09 16:22:00,
2013-02-09 09:38:00,49.5,20.1,29.36,WNW,292,5.8,-999.0,31,-99.99,,,0.00,Acu-Link.com,2013-02-09 16:38:00,
2013-02-09 09:53:00,51.3,20.9,29.36,NE,45,3.7,-999.0,30,-99.99,,,0.00,Acu-Link.com,2013-02-09 16:53:00,
2013-02-09 10:08:00,51.3,21.7,29.35,South,180,6.3,-999.0,31,-99.99,,,0.00,Acu-Link.com,2013-02-09 17:08:00,
2013-02-09 10:23:00,52.0,22.3,29.34,SSW,202,8.9,-999.0,31,-99.99,,,0.00,Acu-Link.com,2013-02-09 17:23:00,
2013-02-09 10:39:00,51.8,17.1,29.35,WNW,292,10.9,-999.0,25,-99.99,,,0.00,Acu-Link.com,2013-02-09 17:39:00,
2013-02-09 10:54:00,51.4,21.0,29.34,SW,225,9.9,-999.0,30,-99.99,,,0.00,Acu-Link.com,2013-02-09 17:54:00,
2013-02-09 11:09:00,48.9,23.8,29.36,SSW,202,10.4,-999.0,37,-99.99,,,0.00,Acu-Link.com,2013-02-09 18:09:00,
2013-02-09 11:25:00,45.5,29.4,29.39,West,270,12.5,-999.0,53,-99.99,,,0.00,Acu-Link.com,2013-02-09 18:25:00,
2013-02-09 11:40:00,44.8,27.3,29.39,West,270,5.8,-999.0,50,-99.99,,,0.00,Acu-Link.com,2013-02-09 18:40:00,
2013-02-09 11:55:00,43.3,24.9,29.41,SW,225,4.2,-999.0,48,-99.99,,,0.00,Acu-Link.com,2013-02-09 18:55:00,
2013-02-09 12:11:00,42.8,21.3,29.40,SW,225,6.3,-999.0,42,-99.99,,,0.00,Acu-Link.com,2013-02-09 19:11:00,
2013-02-09 12:26:00,43.3,22.3,29.42,West,270,6.3,-999.0,43,-99.99,,,0.00,Acu-Link.com,2013-02-09 19:26:00,
2013-02-09 12:41:00,42.8,20.8,29.40,SW,225,6.8,-999.0,41,-99.99,,,0.00,Acu-Link.com,2013-02-09 19:41:00,
2013-02-09 12:57:00,43.0,20.4,29.40,West,270,4.2,-999.0,40,-99.99,,,0.00,Acu-Link.com,2013-02-09 19:57:00,
2013-02-09 13:12:00,41.7,19.8,29.41,WSW,247,2.7,-999.0,41,-99.99,,,0.00,Acu-Link.com,2013-02-09 20:12:00,
2013-02-09 13:27:00,42.3,16.6,29.43,SSW,202,4.2,-999.0,35,-99.99,,,0.00,Acu-Link.com,2013-02-09 20:27:00,
2013-02-09 13:43:00,42.1,16.4,29.40,South,180,11.4,-999.0,35,-99.99,,,0.00,Acu-Link.com,2013-02-09 20:43:00,
2013-02-09 13:58:00,41.7,15.4,29.41,SSE,157,3.7,-999.0,34,-99.99,,,0.00,Acu-Link.com,2013-02-09 20:58:00,
2013-02-09 14:13:00,41.5,14.6,29.41,SW,225,7.8,-999.0,33,-99.99,,,0.00,Acu-Link.com,2013-02-09 21:13:00,
2013-02-09 14:29:00,42.1,14.4,29.42,SSE,157,10.9,-999.0,32,-99.99,,,0.00,Acu-Link.com,2013-02-09 21:29:00,
2013-02-09 14:44:00,42.3,13.1,29.43,SW,225,6.3,-999.0,30,-99.99,,,0.00,Acu-Link.com,2013-02-09 21:44:00,
2013-02-09 14:59:00,42.6,13.4,29.42,West,270,3.7,-999.0,30,-99.99,,,0.00,Acu-Link.com,2013-02-09 21:59:00,
2013-02-09 15:14:00,44.1,13.1,29.43,NW,315,4.2,-999.0,28,-99.99,,,0.00,Acu-Link.com,2013-02-09 22:14:00,
2013-02-09 15:30:00,44.6,12.7,29.41,West,270,7.8,-999.0,27,-99.99,,,0.00,Acu-Link.com,2013-02-09 22:30:00,
2013-02-09 15:45:00,44.6,12.7,29.42,West,270,4.7,-999.0,27,-99.99,,,0.00,Acu-Link.com,2013-02-09 22:45:00,
2013-02-09 16:00:00,43.9,11.3,29.42,SSE,157,1.7,-999.0,26,-99.99,,,0.00,Acu-Link.com,2013-02-09 23:00:00,
2013-02-09 16:15:00,43.5,11.8,29.42,WNW,292,7.8,-999.0,27,-99.99,,,0.00,Acu-Link.com,2013-02-09 23:15:00,
2013-02-09 16:31:00,42.4,10.8,29.42,West,270,6.8,-999.0,27,-99.99,,,0.00,Acu-Link.com,2013-02-09 23:31:00,
2013-02-09 16:46:00,42.6,12.6,29.43,SSW,202,8.3,-999.0,29,-99.99,,,0.00,Acu-Link.com,2013-02-09 23:46:00,
2013-02-09 17:01:00,41.4,16.5,29.43,East,90,10.4,-999.0,36,-99.99,,,0.00,Acu-Link.com,2013-02-10 00:01:00,
2013-02-09 17:16:00,38.5,18.0,29.45,SW,225,5.3,-999.0,43,-99.99,,,0.00,Acu-Link.com,2013-02-10 00:16:00,
2013-02-09 17:32:00,36.7,18.4,29.47,NNE,22,8.9,-999.0,47,-99.99,,,0.00,Acu-Link.com,2013-02-10 00:32:00,
2013-02-09 17:47:00,36.0,18.2,29.46,WNW,292,3.7,-999.0,48,-99.99,,,0.00,Acu-Link.com,2013-02-10 00:47:00,
2013-02-09 18:02:00,34.9,19.1,29.50,East,90,8.3,-999.0,52,-99.99,,,0.00,Acu-Link.com,2013-02-10 01:02:00,
2013-02-09 18:18:00,34.2,20.2,29.49,West,270,4.7,-999.0,56,-99.99,,,0.00,Acu-Link.com,2013-02-10 01:18:00,
2013-02-09 18:33:00,33.8,20.2,29.50,SSE,157,2.7,-999.0,57,-99.99,,,0.00,Acu-Link.com,2013-02-10 01:33:00,
2013-02-09 18:48:00,33.3,20.5,29.50,SE,135,3.2,-999.0,59,-99.99,,,0.00,Acu-Link.com,2013-02-10 01:48:00,
2013-02-09 19:04:00,32.7,21.5,29.50,West,270,3.7,-999.0,63,-99.99,,,0.00,Acu-Link.com,2013-02-10 02:04:00,
2013-02-09 19:19:00,32.2,21.4,29.51,WSW,247,6.3,-999.0,64,-99.99,,,0.00,Acu-Link.com,2013-02-10 02:19:00,
2013-02-09 19:34:00,32.0,20.5,29.51,NW,315,7.8,-999.0,62,-99.99,,,0.00,Acu-Link.com,2013-02-10 02:34:00,
2013-02-09 19:50:00,32.0,20.5,29.52,WNW,292,2.7,-999.0,62,-99.99,,,0.00,Acu-Link.com,2013-02-10 02:50:00,
2013-02-09 20:05:00,32.2,20.7,29.54,SSE,157,6.3,-999.0,62,-99.99,,,0.00,Acu-Link.com,2013-02-10 03:05:00,
2013-02-09 20:20:00,32.0,20.5,29.53,NNW,337,5.3,-999.0,62,-99.99,,,0.00,Acu-Link.com,2013-02-10 03:20:00,
2013-02-09 20:35:00,32.0,21.2,29.53,SSW,202,4.7,-999.0,64,-99.99,,,0.00,Acu-Link.com,2013-02-10 03:35:00,
2013-02-09 20:51:00,31.5,21.1,29.54,NNE,22,2.2,-999.0,65,-99.99,,,0.00,Acu-Link.com,2013-02-10 03:51:00,
2013-02-09 21:06:00,31.5,21.1,29.55,ENE,67,4.7,-999.0,65,-99.99,,,0.00,Acu-Link.com,2013-02-10 04:06:00,
2013-02-09 21:21:00,31.3,20.9,29.55,SSW,202,5.3,-999.0,65,-99.99,,,0.00,Acu-Link.com,2013-02-10 04:21:00,
2013-02-09 21:37:00,31.8,21.4,29.57,ESE,112,3.7,-999.0,65,-99.99,,,0.00,Acu-Link.com,2013-02-10 04:37:00,
2013-02-09 21:52:00,31.6,21.2,29.55,East,90,1.1,-999.0,65,-99.99,,,0.00,Acu-Link.com,2013-02-10 04:52:00,
2013-02-09 22:07:00,31.6,21.2,29.57,East,90,0.0,-999.0,65,-99.99,,,0.00,Acu-Link.com,2013-02-10 05:07:00,
2013-02-09 22:23:00,31.5,20.7,29.57,SE,135,0.0,-999.0,64,-99.99,,,0.00,Acu-Link.com,2013-02-10 05:23:00,
2013-02-09 22:38:00,30.7,19.6,29.58,SW,225,3.2,-999.0,63,-99.99,,,0.00,Acu-Link.com,2013-02-10 05:38:00,
2013-02-09 22:53:00,30.7,19.6,29.59,South,180,2.7,-999.0,63,-99.99,,,0.00,Acu-Link.com,2013-02-10 05:53:00,
2013-02-09 23:08:00,30.9,19.8,29.58,WSW,247,4.2,-999.0,63,-99.99,,,0.00,Acu-Link.com,2013-02-10 06:08:00,
2013-02-09 23:24:00,30.7,19.6,29.57,West,270,4.2,-999.0,63,-99.99,,,0.00,Acu-Link.com,2013-02-10 06:24:00,
2013-02-09 23:39:00,30.6,19.9,29.59,West,270,2.7,-999.0,64,-99.99,,,0.00,Acu-Link.com,2013-02-10 06:39:00,
2013-02-09 23:54:00,30.0,19.3,29.59,SW,225,5.3,-999.0,64,-99.99,,,0.00,Acu-Link.com,2013-02-10 06:54:00,